星链-35571(STARLINK-35571)

导读

STARLINK-35571是美国SpaceX星链星座的成员,于2025年10月19日发射,归属星链互联网星座组网,主要为全球提供低延迟、高速率的卫星互联网接入服务。该星遵循Star链星座部署计划,运行在近地轨道,是Starlink大规模卫星组网进程中的一颗低轨通信卫星,进一步完善星链的全球覆盖能力。

Basic Information
目录编号:
66089
目录名称:
STARLINK-35571
国际标识:
2025-236D
轨道中心:
EARTH
卫星名称:
星链-35571
卫星全名:
星链-35571(STARLINK-35571)
卫星状态:
在轨 (已飞行321 天)
发射日期:
2025-10-19 UTC
国别 :
美国 (US)
星等 :
--
Orbit Information
数据来源 国际轨道数据
星历时间: 2026-09-05T19:07:56+0800
7小时前
查看轨道信息
半长轴: 6840.805km
偏心率: 0.0001083
轨道倾角: 53.160°
近地点辐角 29.966°
升交点赤经 347.794°
平近点角 330.140°
近地点: 461.927km
远地点: 463.409km
周期: 93.847分钟
每日圈数: 15.34412
Detailed Information
固有亮度:
5
最大亮度:
2.5
卫星平台:
Starlink V1.0
覆盖范围:
全球
运营商:
太空探索技术公司
运营商所在国:
美国
制造商(研发单位):
太空探索技术公司
制造商所在国:
美国
使用方式:
暂无
Satellite Introduction
Starlink 计划是 SpaceX 推出的全球卫星互联网项目,通过发射低轨道卫星,为全球尤其是偏远地区提供高速、低延迟的互联网服务。自 2019 年起,Starlink 已部署数千颗卫星,旨在缩小全球数字鸿沟,推动互联网普及。该项目还为军事、航空等行业提供通信支持,带来广泛经济效益。
2D Orbit Map
3D Orbit Map
Orbit Altitude Analysis Chart
Orbit Inclination Analysis Chart
Orbit Comprehensive Analysis Chart
View Comprehensive Chart
Conjunction Data List
Event ID Objects TCA Miss Dist (km) Collision Risk Probability Collision Risk Index (CRI) Action
CDM_260907-155705-810506-608921
2026-09-07T
15:57:06+0000
0.204 km
中距离
5.358788E-4 高风险 0.9
CDM_260907-023905-810506-608921
2026-09-07T
02:39:51+0000
0.907 km
远距离
1.730343E-5 中风险 0.6
CDM_260907-041305-810506-608921
2026-09-07T
04:13:39+0000
1.301 km
极远距离
5.029068E-6 低风险 0.49
CDM_260906-065205-388606-608923
2026-09-06T
06:52:32+0000
2.205 km
极远距离
1.807703E-6 低风险 0.4
CDM_260906-093605-233606-608922
2026-09-06T
09:36:27+0000
2.259 km
极远距离
1.753465E-6 低风险 0.4
CDM_260906-120505-380306-608921
2026-09-06T
12:05:58+0000
2.880 km
极远距离
1.258783E-6 低风险 0.37
CDM_260907-215905-406706-608921
2026-09-07T
21:59:15+0000
2.613 km
极远距离
1.244367E-6 低风险 0.37
CDM_260907-173005-810506-608922
2026-09-07T
17:30:53+0000
2.296 km
极远距离
1.066156E-6 低风险 0.36
CDM_260907-142305-810506-608921
2026-09-07T
14:23:18+0000
2.505 km
极远距离
9.137924E-7 极低风险 0.34
CDM_260908-010004-302306-608921
2026-09-08T
01:00:29+0000
2.822 km
极远距离
8.957883E-7 极低风险 0.34